Torna al catalogo

ATLAS 2A CENTAUR R/B

AttivoHEO
NORAD 25502·ROCKET BODY·🇺🇸 United States

Lanciato Oct 20, 1998 da Cape Canaveral Space Force Station

Loading…

Prossimi Passaggi (prossime 24 ore)

TLE

AggiornatoSource: Space-Track

Epoca: Sep 13, 2026, 22:25 UTC

1 25502U 98058B   26256.93465307  .00007887  00000-0  11473-2 0  9990
2 25502  26.9840 143.1201 5650320 192.5673 143.5269  4.58873107397597

Traccia ATLAS 2A CENTAUR R/B in tempo reale con AllMySat

Download on the App Store